Location: Croisilles
(50.1998°N, 2.8793°E)
Time: 12:36:47
(UTC+00:00)

Cosmos 1689 Rocket - Pass Details

Date: 21 January 2021
Orbit: 353 x 367 km, 97.5° (Epoch: 26 February)

Event Time Altitude Azimuth Distance (km) Brightness Sun altitude
Exits shadow 18:47:49 19° 206° (SSW) 936 4.3 -22.6°
Drops below altitude 10° 18:48:45 10° 203° (SSW) 1,332 5.1 -22.7°
Sets 18:50:40 0° 200° (SSW) 2,169 6.2 -23.0°
